Location: Ajisawe
(8.4333°N, 4.3833°E)
Time: 01:00:05
(UTC+00:00)

Courier 1B Rocket - Pass Details

Date: 02 May 2021
Orbit: 920 x 1202 km, 28.3° (Epoch: 13 May)

Event Time Altitude Azimuth Distance (km) Brightness Sun altitude
Rises 19:54:46 0° 307° (NW) 3,582 9.1 -29.4°
Reaches altitude 10° 19:57:26 10° 313° (NW) 2,663 8.1 -30.0°
Enters shadow 20:03:11 47° 15° (NNE) 1,273 5.5 -31.3°
Maximum altitude 20:03:36 48° 27° (NNE) 1,266 - -31.4°
Drops below altitude 10° 20:10:12 10° 100° (E) 2,839 - -32.9°
Sets 20:13:07 0° 105° (ESE) 3,840 - -33.5°
